Orbital Elements at Epoch 2459200.5 (2020-Dec-17.0) TDB
Reference: JPL 18 (heliocentric ecliptic J2000)
Element | Value | Uncertainty (1-sigma) | Units |
e | .3660156224843143 | 5.2199e-08 | |
a | 2.457927199643339 | 9.3627e-09 | au |
q | 1.558287445644755 | 1.3252e-07 | au |
i | 7.063833042924671 | 4.8015e-06 | deg |
node | 108.7847807036985 | 3.5973e-05 | deg |
peri | 276.9458118478219 | 3.7231e-05 | deg |
M | 352.9598566499075 | 1.1794e-05 | deg |
tp | 2459228.025229687469 (2021-Jan-13.52522969) | 4.6247e-05 | TDB |
period | 1407.511494401422 3.85 | 8.0422e-06 2.202e-08 | d yr |
n | .2557705577765805 | 1.4614e-09 | deg/d |
Q | 3.357566953641924 | 1.279e-08 | au |
|
| | Orbit Determination Parameters
Additional Information
|